Weather History for Hurghada, Egypt

Change the Weather History Date:

Wednesday, November 14, 2012

  Actual Average Record
Temperature  
Mean Temperature 72 °F -  
Max Temperature 80 °F 74 °F 91 °F (2010)
Min Temperature 64 °F 58 °F 59 °F (2005)
Cooling Degree Days 7    
Growing Degree Days 22 (Base 50)    
Moisture  
Dew Point 56 °F    
Average Humidity 58    
Maximum Humidity 73    
Minimum Humidity 31    
Precipitation  
Precipitation 0.00 in - - ()
Sea Level Pressure  
Sea Level Pressure 29.98 in    
Wind  
Wind Speed 10 mph ()    
Max Wind Speed 17 mph    
Max Gust Speed -    
Visibility 6.1 miles    
Events      
Averages and records for this station are not official NWS values.
T = Trace of Precipitation, MM = Missing Value Source: Averaged Metar Reports

Daily Weather History Graph

Daily Weather History Graph

Search for Another Location

Airport:

Trip Planner

Search our weather history database for the weather conditions in past years. The results will help you decide how hot, cold, wet, or windy it might be!

Date:

Astronomy

Nov. 14, 2012 Rise Set
Actual Time 6:04 AM EET 4:53 PM EET
Civil Twilight 5:39 AM EET 5:18 PM EET
Nautical Twilight 5:11 AM EET 5:46 PM EET
Astronomical Twilight 4:43 AM EET 6:14 PM EET
Moon 6:25 AM EET (11/14) 5:27 PM EET (11/14)
Length of Visible Light 11h 38m
Length of Day
10h 49m
New Moon, 0% of the Moon is Illuminated
Nov 14
New Moon
Nov 20
First Quarter
Nov 28
Full
Dec 6
Last Quarter
Dec 13
New

Hourly Weather History & Observations

Time (EET) Temp. Heat Index Dew Point Humidity Pressure Visibility Wind Dir Wind Speed Gust Speed Precip Events Conditions
12:00 AM 66.2 °F - 53.6 °F 64% 29.98 in - NW 12.7 mph - N/A   Clear
1:00 AM 66.2 °F - 53.6 °F 64% 29.98 in - NW 15.0 mph - N/A   Clear
2:00 AM 67 °F - 56 °F 58% 29.99 in 6 mi WNW 10.4 mph - -  
2:00 AM 68.0 °F - 55.4 °F 64% 29.98 in - WNW 10.4 mph - N/A   Clear
3:00 AM 66.2 °F - 57.2 °F 73% 29.95 in - NNW 11.5 mph - N/A   Clear
4:00 AM 66.2 °F - 57.2 °F 73% 29.98 in - WNW 10.4 mph - N/A   Clear
5:00 AM 66.2 °F - 55.4 °F 68% 29.98 in - WNW 15.0 mph - N/A   Clear
6:00 AM 64.4 °F - 55.4 °F 73% 29.98 in - WNW 16.1 mph - N/A   Clear
7:00 AM 66.2 °F - 57.2 °F 73% 30.01 in 6.2 mi WNW 17.3 mph - N/A   Partly Cloudy
8:00 AM 70 °F - 56 °F 53% 30.02 in 6 mi WNW 17.3 mph - -   Scattered Clouds
8:00 AM 69.8 °F - 57.2 °F 64% 30.01 in 6.2 mi WNW 17.3 mph - N/A   Partly Cloudy
9:00 AM 73.4 °F - 57.2 °F 57% 30.04 in 6.2 mi NW 15.0 mph - N/A   Partly Cloudy
10:00 AM 75.2 °F - 57.2 °F 53% 30.01 in 6.2 mi NNW 9.2 mph - N/A   Scattered Clouds
11:00 AM 77.0 °F - 57.2 °F 50% 30.01 in 6.2 mi NW 4.6 mph - N/A   Scattered Clouds
12:00 PM - - 53.6 °F N/A% 29.98 in 6.2 mi North 3.5 mph - N/A   Scattered Clouds
1:00 PM 80.6 °F 80.3 °F 53.6 °F 39% 29.95 in 6.2 mi NNE 3.5 mph - N/A   Scattered Clouds
2:00 PM 79 °F - 54 °F 31% 29.96 in 6 mi North 5.8 mph - -   Scattered Clouds
2:00 PM 78.8 °F - 53.6 °F 42% 29.95 in 6.2 mi North 5.8 mph - N/A   Partly Cloudy
3:00 PM 78.8 °F - 51.8 °F 39% 29.95 in 6.2 mi NE 5.8 mph - N/A   Partly Cloudy
4:00 PM 78.8 °F - 57.2 °F 47% 29.95 in 6.2 mi North 4.6 mph - N/A   Partly Cloudy
5:00 PM 77.0 °F - 53.6 °F 44% 29.95 in 6.2 mi North 4.6 mph - N/A   Partly Cloudy
6:00 PM 75.2 °F - 57.2 °F 53% 29.98 in - North 5.8 mph - N/A   Clear
7:00 PM 73.4 °F - 57.2 °F 57% 29.98 in - WNW 8.1 mph - N/A   Clear
8:00 PM 72 °F - 59 °F 54% 30.00 in 6 mi WNW 9.2 mph - -  
8:00 PM 71.6 °F - 59.0 °F 64% 29.98 in - WNW 9.2 mph - N/A   Clear
9:00 PM 71.6 °F - 60.8 °F 69% 29.98 in - WNW 11.5 mph - N/A   Clear
10:00 PM 69.8 °F - 59.0 °F 68% 30.01 in - NW 6.9 mph - N/A   Clear
11:00 PM 68.0 °F - 57.2 °F 68% 30.01 in - WNW 4.6 mph - N/A   Clear